Find GOES 11

NORAD ID: 26352 Int'l Des: 2000-022 Owner: NOAA Country: US operational
HEOCIRCULAR

实时位置

正在加载3D地球...

关于 GOES 11

正在加载描述...

即将过境

Passes for default location (London). Set your location on the main map for personalized predictions.

高度历史

Loading altitude history...

两行轨道根数

1 26352U 00022A 26105.77941461 -.00000053 00000-0 00000+0 0 9993
2 26352 11.6715 47.0358 0004683 266.9268 266.9802 0.99040139 51855
Epoch: Apr 15, 2026 • Age: 11 hours

当前状态

高度 36131.0 km
速度 3.06 km/s
星下点 -3.16°S, 94.65°E
发射日期 May 3, 2000
运行时间 25.9 years
类型 weather

技术详情

分类 Payload
质量 2105.00 kg
干质量 980.00 kg
总质量 2105.00 kg
长度 4.60 m
直径 2.50 m
跨度 26.90 m
形状 Box + 2 Pan
制造商 LOR
平台类型 FS-1300
阶段状态 In Orbit
所有者/国家 NOAA/US

Most Searched